Location: *
(0.1100°N, 5.5000°E)
Time: 12:34:37
(UTC+00:00)

NOAA 6 - Pass Details

Date: 07 December 2022
Orbit: 772 x 785 km, 98.7° (Epoch: 03 February)

Event Time Altitude Azimuth Distance (km) Brightness Sun altitude
Rises 17:49:57 0° 165° (SSE) 3,270 7.4 -4.7°
Reaches altitude 10° 17:52:17 10° 163° (SSE) 2,338 6.6 -5.3°
Maximum altitude 17:57:26 77° 78° (ENE) 803 4.0 -6.5°
Drops below altitude 10° 18:02:33 10° 352° (N) 2,320 6.4 -7.6°
Sets 18:04:51 0° 351° (N) 3,243 7.1 -8.2°
